FW0693 Weather Reports


Display with metric or nautical units.
time (UTC)temp
F
wind
direction
speed
MPH
gust
MPH
rain 1hr
in
rain 24hr
in
rain mn
in
humidity
%
barometer
mb
20260507183039 55 77 0.0 2.0 0.00 0.00 0.00 75 1015.7
20260507181501 55 77 0.0 2.0 0.00 0.00 0.00 74 1015.7
20260507180033 56 77 1.0 3.0 0.00 0.00 0.00 73 1015.7
20260507174604 56 77 1.0 3.0 0.00 0.00 0.00 72 1015.5
20260507173031 56 68 2.0 4.0 0.00 0.00 0.00 71 1015.6
20260507171601 57 75 3.0 5.0 0.00 0.00 0.00 69 1015.5
20260507170010 57 79 1.0 4.0 0.00 0.00 0.00 68 1015.5
20260507164533 57 87 1.0 4.0 0.00 0.00 0.00 67 1015.4
20260507163004 58 73 0.0 4.0 0.00 0.00 0.00 67 1015.3
20260507161539 58 74 3.0 7.0 0.00 0.00 0.00 67 1015.4
20260507160112 59 46 2.0 5.0 0.00 0.00 0.00 67 1015.5
20260507154530 59 78 1.0 5.0 0.00 0.00 0.00 67 1015.5
20260507153001 59 46 2.0 5.0 0.00 0.00 0.00 67 1015.5
20260507151537 59 5 3.0 5.0 0.00 0.00 0.00 67 1015.5
20260507150005 59 31 1.0 5.0 0.00 0.00 0.00 68 1015.4
20260507144531 58 17 0.0 5.0 0.00 0.00 0.00 67 1015.5
20260507143102 58 17 3.0 6.0 0.00 0.00 0.00 69 1015.5
20260507141521 58 337 2.0 5.0 0.00 0.00 0.00 69 1015.5
20260507140056 58 317 2.0 5.0 0.00 0.00 0.00 67 1015.5
20260507134551 58 360 3.0 6.0 0.00 0.00 0.00 67 1015.6
20260507133031 58 46 2.0 5.0 0.00 0.00 0.00 67 1015.6
20260507131508 58 80 1.0 6.0 0.00 0.00 0.00 65 1015.6
20260507130055 58 66 1.0 6.0 0.00 0.00 0.00 66 1015.7
20260507124514 58 318 1.0 8.0 0.00 0.00 0.00 68 1015.7
20260507123102 58 81 3.0 7.0 0.00 0.00 0.00 69 1015.7
20260507121519 57 343 3.0 5.0 0.00 0.00 0.00 71 1015.7
20260507120054 57 342 1.0 4.0 0.00 0.00 0.00 69 1015.7
20260507114513 57 28 0.0 5.0 0.00 0.00 0.00 72 1015.7
20260507113056 56 281 2.0 3.0 0.00 0.00 0.00 72 1015.7
20260507111518 56 317 3.0 5.0 0.00 0.00 0.00 72 1015.7
20260507110036 56 351 4.0 6.0 0.00 0.00 0.00 72 1015.6
20260507104504 56 5 3.0 6.0 0.00 0.00 0.00 71 1015.8
20260507103030 56 81 1.0 7.0 0.00 0.00 0.00 70 1015.8
20260507101601 56 64 2.0 8.0 0.00 0.00 0.00 71 1015.7
20260507100011 55 297 1.0 3.0 0.00 0.00 0.00 76 1015.7
20260507094537 54 309 2.0 4.0 0.00 0.00 0.00 76 1015.7
20260507093015 54 293 3.0 4.0 0.00 0.00 0.00 78 1015.6
20260507091540 54 303 2.0 5.0 0.00 0.00 0.00 77 1015.5
20260507090002 54 15 1.0 4.0 0.00 0.00 0.00 78 1015.5
20260507084524 53 26 2.0 4.0 0.00 0.01 0.00 78 1015.4
20260507083058 53 5 0.0 4.0 0.00 0.01 0.00 77 1015.5
20260507081520 53 360 3.0 6.0 0.00 0.01 0.00 79 1015.3
20260507080036 52 311 1.0 4.0 0.00 0.01 0.00 80 1015.3
20260507074606 52 318 2.0 5.0 0.00 0.02 0.00 83 1015.3
20260507073016 51 24 0.0 4.0 0.00 0.02 0.00 84 1015.1
20260507071558 50 12 0.0 4.0 0.00 0.02 0.00 86 1015.0
20260507070033 49 328 1.0 3.0 0.00 0.02 0.00 89 1015.0
20260507064550 48 325 1.0 3.0 0.00 0.06 0.00 91 1015.0
20260507063022 48 232 0.0 1.0 0.00 0.06 0.00 92 1014.9
20260507061558 47 283 0.0 0.0 0.00 0.06 0.00 92 1014.8
20260507060030 47 283 0.0 0.0 0.00 0.06 0.00 92 1014.7
20260507054602 46 283 0.0 3.0 0.00 0.09 0.00 92 1014.6
20260507053044 46 286 0.0 2.0 0.00 0.09 0.00 91 1014.4
20260507051519 46 286 1.0 3.0 0.00 0.09 0.00 92 1014.3
20260507050007 46 288 0.0 2.0 0.00 0.09 0.00 91 1014.1
20260507044535 46 288 0.0 1.0 0.00 0.15 0.00 91 1013.9
20260507043055 46 288 2.0 4.0 0.00 0.15 0.00 91 1013.7
20260507041531 46 290 2.0 3.0 0.00 0.15 0.00 91 1013.6
20260507040013 46 292 1.0 2.0 0.00 0.15 0.00 91 1013.5
20260507034534 46 292 2.0 3.0 0.00 0.18 0.00 91 1013.5
20260507033100 46 297 2.0 3.0 0.00 0.18 0.00 91 1013.3
20260507031505 46 355 0.0 3.0 0.00 0.18 0.00 91 1013.2
20260507030037 46 355 0.0 2.0 0.00 0.18 0.00 91 1013.2
20260507024503 46 355 0.0 2.0 0.00 0.20 0.00 91 1013.1
20260507023027 46 5 1.0 4.0 0.00 0.20 0.00 91 1013.1
20260507021549 46 360 2.0 6.0 0.00 0.20 0.00 91 1013.0
20260507020009 46 360 1.0 5.0 0.00 0.20 0.00 91 1012.9
20260507014542 46 297 2.0 4.0 0.00 0.22 0.00 91 1012.8
20260507013057 46 298 2.0 4.0 0.00 0.22 0.00 91 1012.8
20260507011518 46 290 2.0 4.0 0.00 0.22 0.00 91 1012.7
20260507010037 46 289 2.0 4.0 0.00 0.22 0.00 91 1012.7
20260507004517 46 290 3.0 4.0 0.00 0.26 0.00 91 1012.7
20260507003037 46 286 3.0 4.0 0.00 0.26 0.00 91 1012.6
20260507001558 45 288 2.0 4.0 0.00 0.26 0.00 91 1012.6
20260507000026 46 286 2.0 5.0 0.00 0.26 0.00 91 1012.5
20260506234539 46 277 2.0 5.0 0.00 0.28 0.00 91 1012.5
20260506233006 46 262 3.0 6.0 0.00 0.28 0.00 90 1012.4
20260506231543 46 281 2.0 4.0 0.00 0.28 0.00 90 1012.3
20260506224535 46 292 1.0 2.0 0.00 0.31 0.00 90 1012.1
20260506223009 45 292 1.0 3.0 0.00 0.31 0.00 90 1012.0
20260506221536 45 292 1.0 3.0 0.00 0.31 0.00 89 1011.9
20260506220014 45 294 3.0 4.0 0.00 0.31 0.00 89 1011.7
20260506214503 45 290 2.0 4.0 0.00 0.33 0.31 88 1011.6
20260506213049 45 297 2.0 4.0 0.00 0.33 0.31 88 1011.5
20260506211514 46 326 1.0 4.0 0.00 0.33 0.31 88 1011.3
20260506210033 47 309 2.0 3.0 0.00 0.33 0.31 87 1011.2
20260506204508 47 313 1.0 3.0 0.00 0.39 0.31 87 1011.0
20260506203055 48 323 1.0 3.0 0.00 0.39 0.31 87 1010.8
20260506201535 49 345 2.0 4.0 0.00 0.39 0.31 87 1010.7
20260506200058 50 337 3.0 6.0 0.00 0.39 0.31 87 1010.6
20260506194531 50 304 2.0 5.0 0.00 0.46 0.31 87 1010.4
20260506193102 51 360 2.0 5.0 0.00 0.46 0.31 88 1010.2
20260506191530 51 292 2.0 4.0 0.00 0.46 0.31 87 1010.2
20260506190100 51 55 1.0 2.0 0.00 0.46 0.31 87 1010.1
20260506184525 51 55 0.0 0.0 0.00 0.52 0.31 87 1010.1